Location: Boise
(43.6140°N, 116.2030°W)
Time: 05:23:53
(UTC-06:00)

Daily predictions for brighter satellites

Satellite Brightness Start Highest point End
(mag) Time Altitude Azimuth Time Altitude Azimuth Time Altitude Azimuth
DMSP B5D2-2 4.2 00:01:09 10° N 00:06:23 75° WNW 00:09:38 23° SSW
Cosmos 2237 Rocket 2.3 00:09:50 10° NNW 00:15:32 70° WSW 00:17:50 37° S
Cosmos 1869 Rocket 4.1 00:16:18 39° ESE 00:16:58 42° E 00:21:12 10° NNE
ERBS 2.4 00:18:46 67° E 00:18:46 67° E 00:21:54 10° NE
Cosmos 2082 3.7 00:16:22 22° SSW 00:20:12 83° WNW 00:25:58 10° NNE
NOSS 3-1 (A) 4.3 00:16:48 10° WSW 00:22:37 51° NW 00:29:08 10° NNE
H-2A R/B 4.0 00:23:14 10° NE 00:26:29 23° E 00:26:29 23° E
ALOS 2 3.9 00:25:45 26° E 00:26:53 29° ENE 00:30:41 10° N
COSMOS 2455 2.8 00:24:10 10° NNW 00:30:13 78° ENE 00:32:41 38° SE
Cosmos 1626 3.4 00:30:01 27° WSW 00:31:19 36° WNW 00:34:49 10° N
Cosmos 1933 3.2 00:27:53 10° N 00:31:58 86° W 00:32:31 65° S
COS B Rocket 3.1 00:29:02 10° N 00:32:48 75° E 00:33:10 68° SE
BREEZE-M DEB (TANK) 3.6 00:45:34 23° ENE 00:45:34 23° ENE 00:47:24 10° ENE
ATLAS 2AS CENTAUR R/B 3.0 00:38:04 14° SW 00:44:53 85° NW 00:53:02 10° NE
Okean 1-7 2.9 00:41:05 10° N 00:45:23 74° E 00:45:52 65° SE
Cosmos 1703 Rocket 3.7 00:44:18 10° NNW 00:48:37 63° W 00:49:20 53° SW
Cosmos 2221 Rocket 3.9 00:49:51 10° NNW 00:54:21 59° W 00:55:11 49° SW
Cosmos 2227 Rocket 3.2 00:50:34 13° SW 00:55:22 43° WNW 01:00:47 10° NNE
Cosmos 1340 Rocket 4.1 00:57:09 29° E 00:57:09 29° E 01:00:11 10° NNE
Cosmos 2251 Rocket 4.1 00:52:53 10° N 00:58:04 48° ENE 00:59:48 35° ESE
Terra 3.9 00:56:48 14° WSW 00:58:42 17° W 01:01:50 10° NW
Cosmos 2074 Rocket 4.0 00:57:52 43° SSE 00:59:57 71° E 01:06:14 10° NNE
Cosmos 44 Rocket 3.5 00:59:46 53° SE 01:00:17 55° ESE 01:05:25 10° NE
Cosmos 2263 Rocket 4.4 01:00:53 10° E 01:01:19 10° E 01:02:06 10° E
ATLAS 3B R/B 2.7 00:55:15 10° NW 01:02:13 70° WSW 01:04:30 43° S
H-2A R/B 4.2 01:00:24 12° WSW 01:03:03 17° W 01:06:32 10° NW
Cosmos 1689 Rocket 3.2 01:04:16 44° NE 01:04:16 44° NE 01:07:01 10° N
Cosmos 2333 Rocket 3.7 01:01:02 10° NW 01:05:33 24° WSW 01:07:14 21° SW
Cosmos 389 Rocket 2.8 01:03:21 10° NNW 01:06:34 60° WNW 01:06:34 60° WNW
SL-16 R/B 2.4 01:02:40 10° NNW 01:08:15 59° WSW 01:09:36 46° SSW
Cosmos 2327 Rocket 4.5 01:07:13 44° S 01:09:25 82° E 01:15:52 10° N
USA 238 DEB 3.9 01:02:29 10° NW 01:09:33 71° NE 01:13:14 30° SE
USA 238 3.9 01:02:36 10° NNW 01:09:38 70° NE 01:13:21 30° SE
GEOS 3 Rocket 3.5 01:08:44 51° SSE 01:10:05 82° SW 01:15:18 10° NW
Cosmos 2227 4.4 01:10:45 46° SE 01:11:39 51° ESE 01:17:08 10° NE
Cosmos 921 Rocket 4.4 01:15:06 24° E 01:15:06 24° E 01:18:03 10° NE
Cosmos 2084 Rocket 4.5 01:17:58 30° ENE 01:17:58 30° ENE 01:20:16 10° NE
CZ-4B R/B 1.8 01:18:05 65° N 01:18:05 65° N 01:21:04 10° N
SL-08 ROCKET BODY 4.4 01:15:56 47° S 01:17:53 81° E 01:24:04 10° N
Cosmos 1607 4.5 01:13:01 10° NNW 01:19:02 53° NE 01:22:24 26° ESE
NOSS 2-3 (E) 3.9 01:18:08 51° SW 01:19:28 89° ESE 01:25:13 10° NE
Meteor 2-10 Rocket 3.7 01:14:46 10° N 01:20:21 72° E 01:21:53 49° SSE
CZ-4C R/B 3.5 01:15:33 10° NNW 01:22:17 50° NE 01:28:37 14° ESE
Cosmos 2297 Rocket 3.4 01:18:30 15° WSW 01:22:39 38° WNW 01:27:55 10° NNE
CZ-2C R/B 3.3 01:22:10 10° NNE 01:27:02 38° E 01:27:44 36° ESE
Cosmos 2219 Rocket 4.5 01:27:05 10° W 01:28:16 11° W 01:29:27 10° WSW
Cosmos 2154 Rocket 4.3 01:26:28 42° SE 01:28:20 57° E 01:34:29 10° NNE
Cosmos 494 Rocket 4.3 01:23:20 10° NNW 01:28:33 60° ENE 01:29:59 44° ESE
Cosmos 1943 4.2 01:26:42 10° NNW 01:32:03 40° ENE 01:35:00 23° ESE
SeaSat 1 3.2 01:32:01 35° WSW 01:32:23 35° WSW 01:36:54 10° NW
Cosmos 1932 4.4 01:28:03 10° NW 01:34:27 82° WSW 01:36:35 45° SSE
Cosmos 1606 3.8 01:32:56 10° N 01:36:29 34° ENE 01:36:34 34° E
BREEZE-M DEB (TANK) 2.6 01:29:00 10° WNW 01:36:39 78° NNE 01:37:13 61° E
Lacrosse 4 Rocket 2.7 01:33:48 10° NW 01:37:19 30° W 01:37:19 30° W
Cosmos 2184 Rocket 4.2 01:38:04 38° SW 01:40:20 61° W 01:46:29 10° N
Cosmos 1603 3.6 01:36:23 10° NNW 01:42:05 80° WSW 01:43:25 54° S
Meteor 2-6 Rocket 4.3 01:37:05 10° N 01:42:55 75° E 01:44:39 48° SSE
Aureole 2 Rocket 3.8 01:40:55 10° NNW 01:42:48 30° NW 01:42:48 30° NW
Cosmos 1356 Rocket 3.3 01:44:44 75° ENE 01:44:44 75° ENE 01:48:40 10° NNE
NOSS 2-3 (C) 4.5 01:44:40 32° WSW 01:46:52 59° NW 01:52:40 10° NNE
ASTEX 1 3.7 01:44:30 10° N 01:49:16 55° W 01:50:14 46° WSW
Cosmos 1238 Rocket 3.2 01:45:40 10° N 01:49:30 49° ENE 01:49:30 49° ENE
Sich 1 Rocket 3.6 01:49:39 67° ESE 01:49:55 69° E 01:54:26 10° NNE
Cosmos 1892 3.3 01:54:41 49° WNW 01:54:41 49° WNW 01:58:14 10° N
Landsat 5 4.2 01:55:48 44° WSW 01:55:58 44° W 02:00:19 10° NNW
Cosmos 1733 Rocket 3.2 01:55:52 57° WSW 01:56:18 60° W 02:00:43 10° N
Okean 3 4.3 01:52:15 10° N 01:56:21 41° ENE 01:56:57 39° E
Coronas F rocket 3.6 02:00:02 24° NNW 02:00:02 24° NNW 02:01:23 10° N
Cosmos 2341 Rocket 4.0 01:58:10 47° S 02:00:11 80° E 02:06:36 10° N
H-2A R/B 3.7 01:58:29 10° N 02:02:14 33° WNW 02:03:08 29° W
ALOS 2 3.9 02:03:09 27° W 02:03:11 27° W 02:06:56 10° NW
Uosat 12 SS-18 rocket 4.4 02:03:04 47° WSW 02:04:17 65° NW 02:08:43 10° NNE
Cosmos 44 3.4 02:05:25 57° SSW 02:06:35 86° ESE 02:12:04 10° NE
NOSS 3-4 (A) 3.9 02:05:20 41° SSE 02:06:43 47° ESE 02:12:57 10° NE
NOSS 3-4 (C) 3.9 02:05:27 41° SSE 02:06:49 47° ESE 02:13:02 10° NE
NOSS 3-2 (A) 4.1 01:59:24 10° NW 02:06:50 74° NE 02:12:48 20° SE
Cosmos 1378 Rocket 3.4 02:03:58 10° N 02:08:22 76° E 02:08:42 71° SE
Cosmos 962 Rocket 4.4 02:07:24 48° S 02:09:14 89° W 02:15:24 10° N
Cosmos 1408 3.0 02:14:27 55° ENE 02:14:27 55° ENE 02:17:54 10° NNE
SL-8 Rocket 4.2 02:14:50 41° SSE 02:16:58 64° E 02:23:14 10° NNE
Cosmos 1825 2.3 02:20:10 67° ENE 02:20:10 67° ENE 02:23:46 10° NNE
Meteor 2-13 Rocket 4.4 02:18:07 46° SSE 02:20:02 75° E 02:26:10 10° NNE
MOS 1-B Rocket 4.1 02:22:20 43° SW 02:23:36 51° W 02:29:03 10° NNW
Helios 1A Rocket 4.0 02:20:08 10° N 02:23:56 34° WNW 02:24:34 32° W
Cosmos 2218 Rocket 4.2 02:22:46 39° SSE 02:25:01 61° E 02:31:15 10° NNE
Cosmos 1782 3.9 02:22:02 10° NNW 02:25:20 33° W 02:25:20 33° W
Okean 2 Rocket 3.1 02:28:42 61° SE 02:29:17 69° E 02:33:47 10° NNE
Cosmos 1782 Rocket 3.3 02:32:19 73° S 02:32:45 90° ESE 02:37:09 10° N
Cosmos 2366 rocket 4.1 02:37:41 40° SSE 02:39:57 69° E 02:46:07 10° NNE
Cosmos 2263 Rocket 2.2 02:42:34 48° S 02:44:13 77° ESE 02:49:55 10° NNE
CZ-2C R/B 3.5 02:43:44 44° SSW 02:45:14 57° W 02:50:47 10° NNW
Abrixas rocket 3.9 02:49:26 25° E 02:49:26 25° E 02:51:09 10° ENE
RESURS DK-1 2.7 02:48:10 51° SE 02:48:24 52° ESE 02:52:28 10° NE
PSLV R/B 4.3 02:52:11 46° W 02:52:11 46° W 02:56:02 10° NNW
Cosmos 921 Rocket 4.3 02:51:53 26° W 02:52:47 28° WNW 02:56:27 10° N
Cosmos 1975 Rocket 3.3 02:50:00 10° NNW 02:54:16 51° W 02:54:36 50° WSW
Cosmos 1867 3.5 02:52:53 10° NW 02:58:23 77° WSW 03:00:32 38° SSE
COSMOS 2406 4.0 02:53:25 10° NNW 02:59:02 50° ENE 03:04:28 11° SE
BREEZE-M DEB (TANK) 4.0 02:44:10 10° WSW 02:59:55 71° NNW 03:04:03 10° ENE
Cosmos 1727 Rocket 3.9 02:54:15 10° N 03:00:31 89° W 03:03:16 36° S
Cosmos 909 Rocket 4.4 02:58:20 37° S 03:00:53 61° ESE 03:08:04 10° NE
Cosmos 1242 Rocket 2.5 02:57:27 10° N 03:00:57 68° E 03:01:06 66° E
Cosmos 1184 Rocket 2.8 03:02:48 78° NNW 03:02:48 78° NNW 03:06:01 10° N
Cosmos 864 Rocket 4.4 03:00:37 39° SSW 03:03:04 84° W 03:09:15 10° N
Cosmos 1624 Rocket 4.1 03:02:31 44° S 03:04:06 69° ESE 03:09:20 10° NNE
Iridium 4 Rocket 3.5 02:59:38 10° N 03:04:17 68° E 03:06:08 38° SSE
Cosmos 1536 Rocket 3.7 03:01:50 10° N 03:06:12 67° E 03:07:35 41° SSE
CZ-2C R/B 3.9 03:02:44 10° N 03:07:09 28° WNW 03:09:16 21° WSW
CZ-4C R/B 3.2 03:04:12 10° NW 03:10:57 44° WSW 03:13:44 33° SSW
PSLV R/B 3.4 03:07:26 10° NNE 03:11:40 90° NNE 03:12:33 56° SSW
SL-08 R/B 4.0 03:11:29 22° SE 03:14:31 54° ENE 03:19:18 10° N
Cosmos 1943 4.0 03:10:59 10° NW 03:15:58 32° WSW 03:16:47 31° WSW
Landsat 4 3.6 03:17:02 60° SSE 03:17:42 90° ENE 03:21:31 10° NNW
USA 234 3.2 03:13:03 10° SE 03:19:36 86° SW 03:26:11 10° NW
Meteor 1-14 Rocket 4.3 03:17:11 37° SSW 03:19:40 75° W 03:25:34 10° N
ARIANE 5 R/B 4.4 03:21:08 10° NE 03:24:53 21° E 03:28:34 10° SE
Cosmos 1452 Rocket 4.3 03:23:16 26° SSE 03:25:41 42° ESE 03:30:37 10° NE
Cosmos 2151 Rocket 3.7 03:26:57 45° SW 03:28:07 64° W 03:32:34 10° N
CENTAUR R/B 3.5 03:21:06 10° NNW 03:28:47 63° NE 03:36:58 10° SE
JB-3 4.3 03:25:39 10° N 03:29:30 68° WNW 03:30:18 51° SW
AQUA 4.2 03:25:41 10° NNE 03:30:23 56° E 03:32:31 30° SSE
Okean 1-7 Rocket 4.3 03:27:55 10° N 03:32:24 53° ENE 03:35:20 20° SSE
ADEOS 4.5 03:27:30 10° NNE 03:32:27 42° E 03:35:31 21° SSE
NOSS 3-2 (C) 4.3 03:26:57 10° NW 03:34:05 46° WSW 03:38:29 25° S
CBERS-1 4.3 03:29:06 10° NNE 03:34:13 63° ESE 03:36:47 29° S
Okean 1 Rocket 3.4 03:36:35 30° SSE 03:38:34 59° E 03:42:58 10° NNE
Cosmos 1000 Rocket 4.4 03:37:06 10° N 03:43:16 88° E 03:47:36 21° S
Meteor 1-18 Rocket 4.3 03:39:36 10° NNW 03:45:10 62° W 03:48:07 28° SSW
NPP 3.6 03:43:29 10° NNE 03:48:54 83° WNW 03:51:45 29° SSW
Cosmos 1190 Rocket 4.2 03:46:30 10° NNW 03:51:34 51° WSW 03:53:56 29° SSW
Gbstr 26 Del rocket 3.4 03:51:08 34° S 03:52:03 39° SE 03:55:35 10° ENE
OPS 6431 4.3 03:49:35 10° NW 03:52:37 71° SW 03:52:59 60° S
ERS-2 2.1 03:49:38 10° NNE 03:53:22 87° WNW 03:54:39 39° SSW
Cosmos 1140 Rocket 4.2 03:49:51 10° NNW 03:54:53 52° ENE 03:59:52 10° SE
SL-16 R/B 3.4 03:49:58 10° SE 03:55:57 50° ENE 04:01:56 10° N
GP-B 3.0 03:51:35 10° N 03:56:03 79° W 03:58:13 30° S
BREEZE-M TANK 1.6 03:55:01 10° WNW 03:58:01 54° SSW 04:00:39 10° ESE
Cosmos 1812 2.9 03:54:55 10° NNW 03:58:42 52° W 03:59:55 36° SSW
Cosmos 2056 Rocket 4.2 03:59:00 24° WSW 04:01:45 42° WNW 04:06:44 10° N
Cosmos 724 4.3 03:57:03 10° NW 04:03:07 67° WSW 04:09:15 10° SSE
Cosmos 1025 Rocket 3.7 03:59:53 10° N 04:04:05 52° E 04:08:15 10° SSE
IRAS Rocket 4.4 03:58:43 10° N 04:04:10 62° WNW 04:07:25 25° SW
Cosmos 1605 Rocket 4.5 03:59:57 13° SSE 04:05:15 57° E 04:11:22 10° NNE
NOSS 2-2 (D) 4.4 04:03:31 23° S 04:05:36 40° ESE 04:10:00 10° NE
Cosmos 1821 Rocket 4.0 04:02:06 22° S 04:06:30 85° W 04:12:56 10° N
Cosmos 407 Rocket 3.8 04:02:16 10° NNW 04:07:12 46° WSW 04:10:00 24° SSW
Cosmos 2123 Rocket 4.2 04:01:31 10° N 04:07:53 77° E 04:14:12 10° SSE
CZ-2D R/B 3.2 04:04:08 10° NNE 04:09:15 40° E 04:14:23 10° SSE
SL-27 R/B 3.0 04:07:21 10° NNW 04:10:49 41° WSW 04:11:51 32° SW
Spot 4 Rocket 4.1 04:05:48 10° NNE 04:10:59 79° ESE 04:14:34 20° S
Meteor 1-11 Rocket 4.0 04:08:06 18° S 04:12:38 76° E 04:18:37 10° NNE
Okean 1 3.9 04:09:56 10° NNW 04:13:41 40° W 04:15:12 28° SW
Meteor 2-21 Rocket 4.4 04:10:47 19° S 04:15:14 88° W 04:21:23 10° N
Cosmos 676 Rocket 4.1 04:10:15 10° NNW 04:15:17 53° WSW 04:18:59 18° S
Meteor 1-13 Rocket 4.2 04:10:30 10° NNW 04:16:11 77° W 04:21:23 13° S
Meteor 2-15 4.5 04:12:31 10° N 04:18:43 87° E 04:24:52 10° S
Cosmos 1400 Rocket 3.9 04:15:58 13° SSE 04:19:09 39° E 04:22:49 10° NNE
NOSS 2-2 (C) 3.9 04:17:34 23° S 04:19:56 56° ESE 04:24:36 10° NE
Abrixas rocket 3.1 04:22:23 14° W 04:25:02 47° NNW 04:28:18 10° ENE
Cosmos 1844 Rocket 2.7 04:21:38 21° SSW 04:25:29 74° WNW 04:31:11 10° NNE
USA 161 1.6 04:25:43 31° SSW 04:26:46 53° W 04:29:39 10° NNW
RESURS DK-1 4.5 04:24:05 11° W 04:26:47 18° NW 04:29:38 10° N
IRS-1C 4.4 04:23:05 10° N 04:28:17 54° WNW 04:32:00 19° SW
Cosmos 2263 Rocket 4.1 04:24:44 10° W 04:28:48 20° NW 04:32:54 10° N
Cosmos 1544 Rocket 4.1 04:25:06 12° S 04:29:06 55° E 04:33:24 10° NNE
IRS-1D 3.6 04:26:08 10° NNE 04:31:15 77° ESE 04:35:33 14° S
Cosmos 1844 3.7 04:29:25 19° SSW 04:33:38 85° WNW 04:39:26 10° NNE
UNK 3.9 04:28:11 17° SW 04:34:11 49° SSE 04:37:17 10° ENE
Meteor 1-23 Rocket 4.4 04:29:14 10° N 04:35:00 79° E 04:40:38 10° SSE
Cosmos 1954 Rocket 4.5 04:37:33 10° NW 04:42:20 39° WSW 04:46:48 11° SSW
COSMOS 2406 4.3 04:38:21 10° NW 04:43:02 26° WSW 04:46:27 15° SSW
NOSS 2-2 (E) 3.7 04:42:29 18° SW 04:45:36 78° NW 04:50:39 10° NE
Cosmos 1315 Rocket 3.7 04:41:59 10° S 04:45:54 48° E 04:49:49 10° NNE
UNK 3.7 04:41:59 10° S 04:46:35 73° WSW 04:51:15 10° NNW
Cosmos 2278 Rocket 2.2 04:42:34 14° SSW 04:47:26 85° ESE 04:53:08 10° NNE
Cosmos 1602 4.3 04:45:13 18° SW 04:47:41 40° WNW 04:51:20 10° N
ATLAS 5 CENTAUR R/B 2.5 04:42:55 10° NW 04:48:54 82° NE 04:55:18 10° SE
Cosmos 1892 Rocket 3.5 04:46:05 10° NNW 04:50:27 72° W 04:54:45 10° S
MTI 3.9 04:47:39 10° SSE 04:50:57 84° ENE 04:54:15 10° N
Resurs 1-4 Rocket 2.1 04:48:08 10° NNE 04:53:29 83° WNW 04:58:46 10° SSW
Cosmos 614 Rocket 3.9 04:48:24 10° NNW 04:53:35 74° WSW 04:58:40 10° SSE
Okean 2 3.3 04:53:02 10° N 04:57:09 80° W 05:01:15 10° S
Cosmos 1356 3.5 04:55:43 14° SSW 04:58:44 65° WNW 05:02:16 10° N
Cosmos 1633 3.0 04:57:33 14° SSW 05:00:23 46° WNW 05:03:54 10° N
Cosmos 2100 Rocket 4.4 04:54:35 10° S 05:00:45 68° E 05:07:03 10° NNE
Cosmos 1975 4.4 04:57:45 10° SSE 05:01:22 34° E 05:05:01 10° NNE
USA 234 4.2 04:58:06 10° S 05:03:10 24° SW 05:08:15 10° WNW
CZ-4B R/B 4.2 04:58:07 10° NNE 05:03:35 46° E 05:08:59 10° S
ARIANE 5 R/B 2.9 04:59:28 10° N 05:04:16 48° WNW 05:08:54 11° SW
Cosmos 2082 Rocket 2.8 04:59:10 10° NNW 05:04:52 62° ENE 05:10:30 10° SE
COSMOS 2487 3.5 05:06:15 10° NW 05:09:25 29° WSW 05:12:34 10° SSW
Meteor 2-4 Rocket 3.9 05:05:08 10° NNW 05:10:20 49° W 05:15:27 10° SSW
BREEZE-M DEB (TANK) 3.3 05:08:16 11° SSW 05:10:29 24° SE 05:13:06 10° E
Cosmos 1536 3.8 05:09:09 12° SW 05:12:30 31° WNW 05:16:10 10° NNW
UNKNOWN OBJECT B 3.0 05:10:57 10° N 05:15:00 63° WNW 05:19:02 10° SSW
ADEOS II 4.5 05:13:21 10° NE 05:17:20 21° E 05:21:16 10° SE
CZ-2D R/B 3.4 05:13:24 10° N 05:17:25 82° WNW 05:21:27 10° SSW
Timation 2 Rocket 3.9 05:13:00 10° NNW 05:19:03 61° WSW 05:24:55 10° S
CENTAUR R/B 3.6 05:12:16 10° NW 05:19:19 37° WSW 05:26:39 10° S
Thor Agena Rocket 3.8 05:15:12 10° SSE 05:20:21 75° ENE 05:25:29 10° N
Cosmos 1602 Rocket 3.6 05:17:09 10° N 05:21:29 87° ENE 05:25:50 10° S
Cosmos 1461 3.5 05:17:38 10° SW 05:22:16 55° NW 05:26:48 10° NNE
Okean O Rocket 1.6 05:19:05 10° NNE 05:23:28 85° ESE 05:27:48 10° SSW
PSLV R/B 4.0 05:19:17 10° NNE 05:23:28 85° E 05:27:35 10° SSW
BREEZE-M DEB (TANK) 3.6 05:18:20 10° WNW 05:27:47 60° NNE 05:30:48 10° E
Cosmos 2061 Rocket 4.1 05:22:00 10° S 05:28:19 83° W 05:34:46 10° N
Cosmos 1331 Rocket 4.1 05:28:57 10° SSW 05:34:11 82° ESE 05:39:24 10° NNE
